Culiacan, Mexico

6:37 AM MDT on April 19, 2018 (GMT -0600)
Culiacan International

Weather History for MMCL - November, 2012

Change the Weather History Date:

Saturday, November 10, 2012

  Actual Average Record
Temperature  
Mean Temperature 81 °F -  
Max Temperature 95 °F 90 °F 96 °F (2003)
Min Temperature 67 °F 65 °F 59 °F (2010)
Cooling Degree Days 16    
Growing Degree Days 31 (Base 50)    
Moisture  
Dew Point 70 °F    
Average Humidity 65    
Maximum Humidity 92    
Minimum Humidity 23    
Precipitation  
Precipitation 0.00 in - - ()
Sea Level Pressure  
Sea Level Pressure 29.91 in    
Wind  
Wind Speed 3 mph ()    
Max Wind Speed 14 mph    
Max Gust Speed -    
Visibility 9.5 miles    
Events      
Averages and records for this station are not official NWS values.
T = Trace of Precipitation, MM = Missing Value Source: Averaged Metar Reports

Daily Weather History Graph

Daily Weather History Graph

Search for Another Location

Airport or City:

Astronomy

Nov. 10, 2012 Rise Set
Actual Time 6:23 AM MST 5:24 PM MST
Civil Twilight 5:59 AM MST 5:48 PM MST
Nautical Twilight 5:31 AM MST 6:15 PM MST
Astronomical Twilight 5:04 AM MST 6:42 PM MST
Moon 2:51 AM MST (11/10) 2:56 PM MST (11/10)
Length of Visible Light 11h 49m
Length of Day
11h 01m
Waning Crescent, 14% of the Moon is Illuminated
Nov 10
Waning Crescent
Nov 13
New
Nov 20
First Quarter
Nov 28
Full
Dec 6
Last Quarter

Hourly Weather History & Observations

Time (MST) Temp. Heat Index Dew Point Humidity Pressure Visibility Wind Dir Wind Speed Gust Speed Precip Events Conditions
1:40 AM 71 °F - 68 °F 89% 29.94 in 6 mi East 2.2 mph - -  
4:46 AM 70 °F - 68 °F 92% 29.93 in 6 mi Calm Calm - -  
6:02 AM 73.4 °F - 68.0 °F 83% 29.89 in 10.0 mi Calm Calm - N/A   Partly Cloudy
6:47 AM 73.4 °F - 68.0 °F 83% 29.90 in 10.0 mi Calm Calm - N/A   Partly Cloudy
7:40 AM 75.2 °F - 69.8 °F 83% 29.97 in 10.0 mi Calm Calm - N/A   Partly Cloudy
8:44 AM 78.8 °F - 68.0 °F 69% 29.95 in 10.0 mi Calm Calm - N/A   Partly Cloudy
9:45 AM 86.0 °F 91.8 °F 71.6 °F 62% 29.95 in 10.0 mi Calm Calm - N/A   Mostly Cloudy
10:45 AM 83 °F - 70 °F 56% 30.01 in 10 mi SW 2.2 mph - -  
10:46 AM 87.8 °F 95.6 °F 73.4 °F 62% 29.92 in 10.0 mi Calm Calm - N/A   Mostly Cloudy
11:46 AM 89.6 °F 99.8 °F 75.2 °F 62% 29.92 in 10.0 mi Calm Calm - N/A   Mostly Cloudy
12:40 PM 91.4 °F 102.5 °F 75.2 °F 59% 29.89 in 10.0 mi WNW 13.8 mph - N/A   Mostly Cloudy
1:40 PM 93.2 °F 102.4 °F 73.4 °F 52% 29.92 in 10.0 mi WNW 9.2 mph - N/A   Mostly Cloudy
1:45 PM 92 °F - 59 °F 23% 29.94 in 10 mi SW 2.2 mph - -  
2:41 PM 95.0 °F 104.5 °F 73.4 °F 49% 29.85 in 10.0 mi WNW 11.5 mph - N/A   Mostly Cloudy
3:41 PM 95.0 °F 104.5 °F 73.4 °F 49% 29.83 in 10.0 mi WNW 9.2 mph - N/A   Mostly Cloudy
4:40 PM 89 °F - 65 °F 36% 29.88 in 10 mi SW 2.2 mph - -  
4:42 PM 93.2 °F 102.4 °F 73.4 °F 52% 29.83 in 10.0 mi WNW 9.2 mph - N/A   Mostly Cloudy
5:42 PM 86.0 °F 91.8 °F 71.6 °F 62% 29.85 in 10.0 mi WNW 11.5 mph - N/A   Mostly Cloudy
6:43 PM 82.4 °F 88.2 °F 73.4 °F 74% 29.87 in 10.0 mi WNW 11.5 mph - N/A   Scattered Clouds
7:40 PM 78.8 °F - 71.6 °F 78% 29.88 in 10.0 mi WNW 11.5 mph - N/A   Scattered Clouds
8:40 PM 78.8 °F - 71.6 °F 78% 29.91 in 10.0 mi WNW 5.8 mph - N/A   Scattered Clouds
9:40 PM 77.0 °F - 71.6 °F 83% 29.92 in 10.0 mi WNW 11.5 mph - N/A   Scattered Clouds
10:40 PM 74 °F - 63 °F 61% 29.97 in 6 mi SW 4.5 mph - -